Simultaneous Nadir Overpasses (SNOs) Predictions

Prediction of SNOs between AURA and NPP Satellite Orbit:

Table of predicted SNOs for the next 14.0 days since TLE Epoch: 11/6/2021
Index Date (AURA) Time (AURA) Lat,Lon (AURA) SZA (AURA ) Date (NPP) Time (NPP) Lat,Lon (NPP) SZA (NPP ) Distance(km) Time Diff (sec)
1 11/06/2021 10:35:44 -79.15, 95.57 72.04 11/06/2021 10:35:31 -79.14, 95.49 72.01 1.75 13
2 11/06/2021 11:25:01 79.50, -94.51 107.52 11/06/2021 11:26:05 79.50, -94.41 107.45 2.19 64
3 11/09/2021 02:02:51 78.95, 42.60 108.99 11/09/2021 02:01:50 78.94, 42.54 109.05 1.49 61
4 11/09/2021 02:52:09 -79.31,-147.50 71.48 11/09/2021 02:52:25 -79.31,-147.49 71.49 0.32 16
5 11/11/2021 18:19:15 79.14, 159.65 109.49 11/11/2021 18:18:43 79.15, 159.75 109.49 2.36 32
6 11/11/2021 19:08:37 -79.35, -31.40 70.77 11/11/2021 19:09:23 -79.34, -31.52 70.79 2.45 46
7 11/14/2021 10:35:40 79.24, -83.86 110.08 11/14/2021 10:35:38 79.24, -83.79 110.06 1.57 2
8 11/14/2021 11:24:03 -81.25, 103.76 73.19 11/14/2021 11:25:17 -80.96, 104.35 73.39 33.21 74
9 11/17/2021 02:02:49 -78.98,-137.22 68.92 11/17/2021 02:02:00 -78.97,-137.31 68.87 2.17 49
10 11/17/2021 02:52:05 79.36, 32.82 110.60 11/17/2021 02:52:33 79.37, 32.93 110.55 2.51 28
11 11/19/2021 18:19:13 -79.13, -20.41 68.47 11/19/2021 18:18:54 -79.13, -20.40 68.46 0.34 19



Historial Predications of SNOs between AURA and NPP
